This demonstration page uses our WeatherBlox Daily Observations layout. Learn more.

Left ArrowRight Arrow

Hourly Observations for May 3, 2017

Temp ( °F °C ) Dew Point ( °F °C ) Humidity (%) Winds ( mph kmh ) Pressure ( in mb ) Visibility ( mi km ) Precip ( " mm )
12:15 am 00:15 Mostly Cloudy 46 8 39 4 76 76 W 3 6 30.09 1019 10 16 0.00 0.00
12:35 am 00:35 Partly Cloudy 46 8 39 4 76 76 WNW 3 6 30.09 1019 10 16 0.00 0.00
12:55 am 00:55 Clear 45 7 39 4 81 81 NW 3 6 30.06 1018 10 16 0.00 0.00
1:15 am 01:15 Clear 45 7 39 4 81 81 NW 5 7 30.06 1018 10 16 0.00 0.00
1:35 am 01:35 Clear 45 7 39 4 81 81 WNW 3 6 30.06 1018 10 16 0.00 0.00
1:55 am 01:55 Clear 43 6 39 4 87 87 WNW 3 6 30.06 1018 10 16 0.00 0.00
2:15 am 02:15 Clear 43 6 37 3 81 81 W 3 6 30.06 1018 10 16 0.00 0.00
2:35 am 02:35 Clear 43 6 37 3 81 81 WNW 7 11 30.06 1018 10 16 0.00 0.00
2:55 am 02:55 Clear 43 6 37 3 81 81 WNW 7 11 30.06 1018 10 16 0.00 0.00
3:15 am 03:15 Clear 43 6 37 3 81 81 WNW 7 11 30.06 1018 10 16 0.00 0.00
3:35 am 03:35 Clear 43 6 37 3 81 81 WNW 6 9 30.06 1018 10 16 0.00 0.00
3:55 am 03:55 Clear 43 6 37 3 81 81 NW 6 9 30.06 1018 10 16 0.00 0.00
4:15 am 04:15 Clear 45 7 37 3 76 76 NW 8 13 30.03 1017 10 16 0.00 0.00
4:35 am 04:35 Clear 43 6 37 3 81 81 NW 8 13 30.06 1018 10 16 0.00 0.00
4:55 am 04:55 Clear 43 6 36 2 76 76 NW 6 9 30.06 1018 10 16 0.00 0.00
5:15 am 05:15 Clear 41 5 36 2 81 81 WNW 6 9 30.06 1018 10 16 0.00 0.00
5:35 am 05:35 Clear 41 5 36 2 81 81 WNW 6 9 30.06 1018 10 16 0.00 0.00
5:55 am 05:55 Mostly Clear 41 5 36 2 81 81 WNW 7 11 30.06 1018 10 16 0.00 0.00
6:15 am 06:15 Mostly Cloudy 39 4 36 2 87 87 WNW 7 11 30.12 1020 10 16 0.00 0.00
6:35 am 06:35 Cloudy 43 6 36 2 76 76 WNW 8 13 30.09 1019 10 16 0.00 0.00
6:55 am 06:55 Cloudy 43 6 36 2 76 76 WNW 9 15 30.09 1019 10 16 0.00 0.00
7:15 am 07:15 Cloudy 43 6 36 2 76 76 NW 9 15 30.09 1019 10 16 0.00 0.00
7:35 am 07:35 Cloudy 41 5 36 2 81 81 WNW 8 13 30.15 1021 10 16 0.00 0.00
7:55 am 07:55 Cloudy 43 6 36 2 76 76 NW 8 13 30.12 1020 10 16 0.00 0.00
8:15 am 08:15 Cloudy 43 6 36 2 76 76 NW 8 13 30.12 1020 10 16 0.00 0.00
8:35 am 08:35 Cloudy 43 6 37 3 81 81 NNW 6 9 30.12 1020 10 16 0.00 0.00
8:55 am 08:55 Cloudy 45 7 37 3 76 76 NW 6 9 30.12 1020 10 16 0.00 0.00
9:15 am 09:15 Cloudy 46 8 39 4 76 76 NNW 5 7 30.12 1020 10 16 0.00 0.00
9:35 am 09:35 Mostly Cloudy 52 11 43 6 72 72 NNW 10 17 30.09 1019 10 16 0.00 0.00
9:55 am 09:55 Mostly Sunny 54 12 43 6 67 67 NW 7 11 30.09 1019 10 16 0.00 0.00
10:15 am 10:15 Mostly Sunny 55 13 41 5 59 59 N 10 17 30.03 1017 10 16 0.00 0.00
10:35 am 10:35 Sunny 57 14 41 5 55 55 NNW 10 17 30.03 1017 10 16 0.00 0.00
10:55 am 10:55 Sunny 59 15 39 4 48 48 NNW 14 22 30.03 1017 10 16 0.00 0.00
11:15 am 11:15 Mostly Cloudy 59 15 39 4 48 48 N 9 15 30.03 1017 10 16 0.00 0.00
11:35 am 11:35 Cloudy 61 16 39 4 45 45 NNW 13 20 30.03 1017 10 16 0.00 0.00
11:55 am 11:55 Cloudy 59 15 37 3 45 45 N 14 22 30.06 1018 10 16 0.00 0.00
12:15 pm 12:15 Cloudy 59 15 41 5 51 51 NNW 20 31 30.06 1018 10 16 0.00 0.00
12:35 pm 12:35 Cloudy 59 15 39 4 48 48 N 18 30 30.06 1018 10 16 0.00 0.00
12:55 pm 12:55 Cloudy 57 14 39 4 51 51 NNW 17 28 30.06 1018 10 16 0.00 0.00
1:15 pm 13:15 Cloudy 57 14 43 6 59 59 NNW 24 39 30.06 1018 10 16 0.00 0.00
1:35 pm 13:35 Cloudy 55 13 43 6 63 63 NNW 23 37 30.06 1018 10 16 0.00 0.00
1:55 pm 13:55 Mostly Cloudy 55 13 43 6 63 63 N 24 39 30.06 1018 10 16 0.00 0.00
2:15 pm 14:15 Mostly Cloudy 55 13 39 4 55 55 N 28 44 30.06 1018 10 16 0.00 0.00
2:35 pm 14:35 Mostly Cloudy 55 13 37 3 51 51 N 24 39 30.06 1018 10 16 0.00 0.00
2:55 pm 14:55 Cloudy 54 12 39 4 58 58 NNW 20 31 30.09 1019 10 16 0.00 0.00
3:15 pm 15:15 Mostly Cloudy 55 13 39 4 55 55 N 22 35 30.06 1018 10 16 0.00 0.00
3:35 pm 15:35 Sunny 55 13 39 4 55 55 N 17 28 30.06 1018 10 16 0.00 0.00
3:55 pm 15:55 Partly Cloudy 57 14 39 4 51 51 NNW 17 28 30.06 1018 10 16 0.00 0.00
4:15 pm 16:15 Mostly Cloudy 57 14 39 4 51 51 N 15 24 30.06 1018 10 16 0.00 0.00
4:35 pm 16:35 Mostly Cloudy 59 15 39 4 48 48 NNW 18 30 30.06 1018 10 16 0.00 0.00
4:55 pm 16:55 Partly Cloudy 59 15 39 4 48 48 N 20 31 30.06 1018 10 16 0.00 0.00
5:15 pm 17:15 Mostly Sunny 59 15 37 3 45 45 N 22 35 30.06 1018 10 16 0.00 0.00
5:35 pm 17:35 Mostly Sunny 61 16 37 3 42 42 N 20 31 30.06 1018 10 16 0.00 0.00
5:55 pm 17:55 Sunny 59 15 37 3 45 45 N 22 35 30.06 1018 10 16 0.00 0.00
6:15 pm 18:15 Partly Cloudy 61 16 37 3 42 42 NNE 17 28 30.06 1018 10 16 0.00 0.00
6:35 pm 18:35 Mostly Sunny 59 15 37 3 45 45 N 16 26 30.06 1018 10 16 0.00 0.00
6:55 pm 18:55 Sunny 57 14 37 3 48 48 N 16 26 30.06 1018 10 16 0.00 0.00
7:15 pm 19:15 Sunny 57 14 37 3 48 48 N 17 28 30.09 1019 10 16 0.00 0.00
7:35 pm 19:35 Mostly Cloudy 55 13 37 3 51 51 NNW 13 20 30.09 1019 10 16 0.00 0.00
7:55 pm 19:55 Mostly Sunny 55 13 39 4 55 55 N 12 19 30.09 1019 10 16 0.00 0.00
8:15 pm 20:15 Mostly Sunny 54 12 39 4 58 58 N 12 19 30.12 1020 10 16 0.00 0.00
8:35 pm 20:35 Partly Cloudy 54 12 37 3 54 54 NNW 14 22 30.12 1020 10 16 0.00 0.00
8:55 pm 20:55 Cloudy 54 12 37 3 54 54 NNW 22 35 30.12 1020 10 16 0.00 0.00
9:15 pm 21:15 Partly Cloudy 54 12 36 2 51 51 NNW 12 19 30.15 1021 10 16 0.00 0.00
9:35 pm 21:35 Mostly Clear 52 11 37 3 58 58 N 10 17 30.15 1021 10 16 0.00 0.00
9:55 pm 21:55 Clear 52 11 37 3 58 58 N 9 15 30.15 1021 10 16 0.00 0.00
10:15 pm 22:15 Partly Cloudy 48 9 37 3 66 66 NNW 9 15 30.21 1023 10 16 0.00 0.00
10:35 pm 22:35 Mostly Clear 48 9 37 3 66 66 NNW 8 13 30.21 1023 10 16 0.00 0.00
10:55 pm 22:55 Clear 48 9 37 3 66 66 NNW 6 9 30.21 1023 10 16 0.00 0.00
11:15 pm 23:15 Clear 46 8 37 3 71 71 NW 6 9 30.21 1023 10 16 0.00 0.00
11:35 pm 23:35 Clear 46 8 37 3 71 71 NW 6 9 30.21 1023 10 16 0.00 0.00
11:55 pm 23:55 Clear 45 7 37 3 76 76 WNW 9 15 30.21 1023 10 16 0.00 0.00

Powered by AerisWeather